BSAT-3B

Last updated on Thu Nov 21 2024 00:02:41 GMT+0000 (Coordinated Universal Time)

1 37207U 10056B 24324.55604977 -.00000349 00000+0 00000+0 0 9994 2 37207 0.0407 323.8041 0003875 325.0135 80.2664 1.00268106 46342
UTC large
Height (km)
Speed (km/s)
/
Latitude / Longitude
Inclination (degrees)
Orbital Period (minutes)
Azimuth
Elevation
Range (km)
Doppler Factor

Next 0 passes for location: London (51.5072 / 0.1276)

Sorry there are no passes over London.